Metsaborg — PBFL — position and weather

sailwx.info

Track history (hours):
 
Tides and Currents Weather Stations Pressure Air Temp Water Temp Dewpoint Dewpoint Depression Visibility Wind Speed Wind Dir Waves Ship Positions

Metsaborg

Last reported at 2014-Oct-24 21:03 UTC. Time now 2014-Oct-25 03:32 UTC.
Position N 43°21' W 003°03'.

Length 134 m; draft 4.9 m.

Type: Cargo ship. MMSI: 246270000.

Date/timePositionNaut miles runAvg speedWind from/ knotsBaromVisibWave heightAir tempDewpointWater temp
2014-Oct-24 21:03N 43°21' W 003°03'1 2.7
2014-Oct-24 20:34N 43°22' W 003°04'1312.6
2014-Oct-24 19:33N 43°29' W 003°19'1413.9
2014-Oct-24 18:34N 43°36' W 003°36'1514.0
2014-Oct-24 17:31N 43°39' W 003°56'3313.9
2014-Oct-24 15:09N 43°46' W 004°40'914.0
2014-Oct-24 14:29N 43°47' W 004°53'1314.0
2014-Oct-24 13:33N 43°48' W 005°11'1514.6
2014-Oct-24 12:33N 43°49' W 005°31'1414.5
2014-Oct-24 11:33N 43°50' W 005°51'1514.0
2014-Oct-24 10:31N 43°50' W 006°12'31810.2
2014-Oct-23 03:11N 39°17' W 009°49'710.6
2014-Oct-23 02:33N 39°10' W 009°50'1010.2
2014-Oct-23 01:32N 38°60' W 009°50'1010.2
2014-Oct-23 00:33N 38°50' W 009°50'1010.2
2014-Oct-22 23:33N 38°39' W 009°50'1010.0
2014-Oct-22 22:32N 38°29' W 009°50'1110.3
2014-Oct-22 21:29N 38°19' W 009°50'1010.4
2014-Oct-22 20:33N 38°09' W 009°50'1010.5
2014-Oct-22 19:33N 37°58' W 009°50'1010.2
2014-Oct-22 18:33N 37°48' W 009°49'1010.0
2014-Oct-22 17:33N 37°38' W 009°50'1110.5
2014-Oct-22 16:33N 37°28' W 009°50'1110.7
2014-Oct-22 15:33N 37°17' W 009°50'1010.3
2014-Oct-22 14:33N 37°07' W 009°50'1010.2
2014-Oct-22 13:33N 36°57' W 009°50'1010.0
2014-Oct-22 12:32N 36°46' W 009°50'1110.2
2014-Oct-22 11:26N 36°35' W 009°51'2310.3
2014-Oct-22 09:15N 36°13' W 009°51'  
Track history (hours):
 
Tides and Currents Weather Stations Pressure Air Temp Water Temp Dewpoint Dewpoint Depression Visibility Wind Speed Wind Dir Waves Ship Positions

Metsaborg

Last reported at 2014-Oct-24 21:03 UTC. Time now 2014-Oct-25 03:32 UTC.
Position N 43°21' W 003°03'.

Length 134 m; draft 4.9 m.

Type: Cargo ship. MMSI: 246270000.

Date/timePositionNaut miles runAvg speedWind from/ knotsBaromVisibWave heightAir tempDewpointWater temp
2014-Oct-24 21:03N 43°21' W 003°03'1 2.7
2014-Oct-24 20:34N 43°22' W 003°04'1312.6
2014-Oct-24 19:33N 43°29' W 003°19'1413.9
2014-Oct-24 18:34N 43°36' W 003°36'1514.0
2014-Oct-24 17:31N 43°39' W 003°56'3313.9
2014-Oct-24 15:09N 43°46' W 004°40'914.0
2014-Oct-24 14:29N 43°47' W 004°53'1314.0
2014-Oct-24 13:33N 43°48' W 005°11'1514.6
2014-Oct-24 12:33N 43°49' W 005°31'1414.5
2014-Oct-24 11:33N 43°50' W 005°51'1514.0
2014-Oct-24 10:31N 43°50' W 006°12'31810.2
2014-Oct-23 03:11N 39°17' W 009°49'710.6
2014-Oct-23 02:33N 39°10' W 009°50'1010.2
2014-Oct-23 01:32N 38°60' W 009°50'1010.2
2014-Oct-23 00:33N 38°50' W 009°50'1010.2
2014-Oct-22 23:33N 38°39' W 009°50'1010.0
2014-Oct-22 22:32N 38°29' W 009°50'1110.3
2014-Oct-22 21:29N 38°19' W 009°50'1010.4
2014-Oct-22 20:33N 38°09' W 009°50'1010.5
2014-Oct-22 19:33N 37°58' W 009°50'1010.2
2014-Oct-22 18:33N 37°48' W 009°49'1010.0
2014-Oct-22 17:33N 37°38' W 009°50'1110.5
2014-Oct-22 16:33N 37°28' W 009°50'1110.7
2014-Oct-22 15:33N 37°17' W 009°50'1010.3
2014-Oct-22 14:33N 37°07' W 009°50'1010.2
2014-Oct-22 13:33N 36°57' W 009°50'1010.0
2014-Oct-22 12:32N 36°46' W 009°50'1110.2
2014-Oct-22 11:26N 36°35' W 009°51'2310.3
2014-Oct-22 09:15N 36°13' W 009°51'  

Dump ship's entire track history